Location: Hannover
(52.3723°N, 9.7339°E)
Time: 22:19:59
(UTC+01:00)

YUBILEINY - Visible Passes

Search period start: 27 January 2020 00:00
Search period end: 06 February 2020 00:00
Orbit: 1478 x 1509 km, 82.5° (Epoch: 27 January)

Date Brightness Start Highest point End Pass type
(mag) Time Alt. Az. Time Alt. Az. Time Alt. Az.
27 Jan ? 00:06:58 10° NNE 00:09:38 11° NNE 00:11:06 11° NE visible
27 Jan ? 02:02:05 10° N 02:06:59 29° NNE 02:06:59 29° NNE visible
27 Jan ? 03:58:53 10° NNW 04:02:51 31° NNW 04:02:51 31° NNW visible
27 Jan ? 05:57:15 10° NNW 05:58:45 14° NW 05:58:45 14° NW visible
27 Jan ? 19:06:51 10° WSW 19:13:32 24° NW 19:20:19 10° N visible
28 Jan ? 01:12:46 10° N 01:17:33 22° NNE 01:17:33 22° NNE visible
28 Jan ? 03:09:11 10° N 03:13:26 33° N 03:13:26 33° N visible
28 Jan ? 05:06:43 10° NNW 05:09:19 19° NW 05:09:19 19° NW visible
28 Jan ? 18:15:10 10° SW 18:23:01 36° WNW 18:30:59 10° N visible
28 Jan ? 20:20:26 10° NW 20:23:19 12° NNW 20:26:13 10° NNW visible
29 Jan ? 00:23:43 10° N 00:28:09 15° NE 00:28:09 15° NE visible
29 Jan ? 02:19:38 10° N 02:24:03 30° NNE 02:24:03 30° NNE visible
29 Jan ? 04:16:41 10° NNW 04:19:56 25° NNW 04:19:56 25° NNW visible
29 Jan ? 17:24:22 10° SSW 17:32:53 57° WNW 17:41:31 10° N visible
29 Jan ? 19:26:35 10° W 19:32:05 18° NW 19:37:39 10° N visible
29 Jan ? 23:36:08 10° NNE 23:37:09 10° NNE 23:38:11 10° NE visible
30 Jan ? 01:30:13 10° N 01:34:41 25° NNE 01:34:41 25° NNE visible
30 Jan ? 03:26:53 10° NNW 03:30:35 29° NNW 03:30:35 29° NNW visible
30 Jan ? 05:24:57 10° NNW 05:26:28 14° NW 05:26:28 14° NW visible
30 Jan ? 18:34:11 10° WSW 18:41:17 27° NW 18:48:29 10° N visible
31 Jan ? 00:40:57 10° N 00:45:22 19° NNE 00:45:22 19° NNE visible
31 Jan ? 02:37:15 10° N 02:41:15 30° N 02:41:15 30° N visible
31 Jan ? 04:34:37 10° NNW 04:37:08 20° NNW 04:37:08 20° NNW visible
31 Jan ? 17:42:46 10° SW 17:50:53 41° WNW 17:59:06 10° N visible
31 Jan ? 19:47:01 10° WNW 19:50:52 13° NW 19:54:44 10° N visible
31 Jan ? 23:52:03 10° N 23:56:03 14° NE 23:56:03 14° NE visible
01 Feb ? 01:47:44 10° N 01:51:57 28° NNE 01:51:57 28° NNE visible
01 Feb ? 03:44:40 10° NNW 03:47:50 25° NNW 03:47:50 25° NNW visible
01 Feb ? 05:43:41 10° NW 05:43:44 10° NW 05:43:44 10° NW visible
01 Feb ? 18:53:42 10° W 18:59:46 20° NW 19:05:53 10° N visible
02 Feb ? 00:58:21 10° N 01:02:40 23° NNE 01:02:40 23° NNE visible
02 Feb ? 02:54:56 10° NNW 02:58:33 29° N 02:58:33 29° N visible
02 Feb ? 04:52:44 10° NNW 04:54:27 15° NW 04:54:27 15° NW visible
02 Feb ? 18:01:36 10° WSW 18:09:04 31° WNW 18:16:38 10° N visible
02 Feb ? 20:09:42 10° NNW 20:09:49 10° NNW 20:09:57 10° NNW visible
03 Feb ? 00:09:09 10° N 00:13:24 18° NNE 00:13:24 18° NNE visible
03 Feb ? 02:05:20 10° N 02:09:17 29° N 02:09:17 29° N visible
03 Feb ? 04:02:33 10° NNW 04:05:11 21° NNW 04:05:11 21° NNW visible
03 Feb ? 19:13:49 10° WNW 19:18:27 15° NW 19:23:06 10° N visible
03 Feb ? 23:20:30 10° N 23:23:40 12° NNE 23:24:09 12° NE visible
04 Feb ? 01:15:51 10° N 01:20:02 26° NNE 01:20:02 26° NNE visible
04 Feb ? 03:12:40 10° NNW 03:15:56 26° NNW 03:15:56 26° NNW visible
04 Feb ? 05:11:12 10° NNW 05:11:50 11° NW 05:11:50 11° NW visible
04 Feb ? 18:20:55 10° W 18:27:28 23° NW 18:34:05 10° N visible
05 Feb ? 00:26:30 10° N 00:30:48 21° NNE 00:30:48 21° NNE visible
05 Feb ? 02:22:58 10° N 02:26:42 29° N 02:26:42 29° N visible
05 Feb ? 04:20:35 10° NNW 04:22:35 17° NNW 04:22:35 17° NNW visible
05 Feb ? 19:34:50 10° NW 19:37:19 11° NNW 19:39:49 10° NNW visible
05 Feb ? 23:37:24 10° N 23:41:34 16° NNE 23:41:34 16° NNE visible
